View from above orbital plane
|
View from above satellite
|
Ground track
|
The orbit data is extracted from the following two-line orbital elements,
1 00045U 60007A 21059.74410650 -.00000068 00000-0 97747-5 0 9990
2 00045 66.6940 65.4780 0249564 130.1569 232.1683 14.33707549102570
Epoch (UTC): | 28 February 2021 17:51:30 |
Eccentricity: | 0.0249564 |
inclination: | 66.6940° |
perigee height: | 601 km |
apogee height: | 958 km |
right ascension of ascending node: | 65.4780° |
argument of perigee: | 130.1569° |
revolutions per day: | 14.33707549 |
mean anomaly at epoch: | 232.1683° |
orbit number at epoch: | 10257 |
The dashed part of the orbit path shows where the satellite is in the earth's shadow,
|
|